Flag for Germany Weather for the Past 2 Weeks in Geislingen an der Steige, Baden-Württemberg, Germany

Now
52 °F

Scattered clouds.


Feels Like: 51 °F
Forecast: 43 / 54 °F
Wind: 3 mph from North

Location: Laupheim Airport

Current Time: Apr 30, 2016 at 11:28:09 AM

Latest Report: Apr 30, 2016 at 10:20 AM


Visibility: N/A

Pressure: 30.01 "Hg

Humidity: 62%

Dew Point: 39 °F

Location of Geislingen an der SteigeLocation

Historic Weather in Geislingen an der Steige — Graph

°F

Geislingen an der Steige Temperature Yesterday

Maximum temperature yesterday: 57 °F (at 4:20 PM)
Minimum temperature yesterday: 28 °F (at 6:20 AM)
Average temperature yesterday: 44 °F

High & Low Weather Summary for the Past Weeks

 TemperatureHumidityPressure
High64 °F (Apr 21, 3:20 PM)100% (Apr 16, 4:20 AM)30.36 "Hg (Apr 16, 4:20 AM)
Low28 °F (Apr 28, 4:20 AM)33% (Apr 29, 7:20 PM)29.59 "Hg (Apr 26, 7:20 AM)
Average44 °F75%29.95 "Hg
* Reported Apr 15 9:20 AM — Apr 30 9:20 AM, Geislingen an der Steige, Weather by CustomWeather, © 2016

Note: Actual official high and low records may vary slightly from our data, if they occured in-between our weather recording intervals... More about our weather records

Advertising

Geislingen an der Steige Weather History for the Previous 24 Hours

Scroll right to see more
 ConditionsComfort  
Time TempWeatherWind HumidityBarometerVisibility
9:20 AM
Sat, Apr 30
46 °FScattered clouds.2 mph71%30.01 "HgN/A
8:20 AM41 °FPartly sunny.2 mph81%30.01 "HgN/A
7:20 AM37 °FScattered clouds.1 mph81%30.01 "HgN/A
6:20 AM34 °FPassing clouds.2 mph87%30.01 "HgN/A
5:20 AM36 °FPassing clouds.2 mph81%30.01 "HgN/A
4:20 AM36 °FPassing clouds.2 mph87%30.01 "HgN/A
3:20 AM37 °FPassing clouds.2 mph81%30.01 "HgN/A
2:20 AM39 °FPassing clouds.2 mph75%30.01 "HgN/A
1:20 AM39 °FPassing clouds.1 mph81%30.01 "HgN/A
12:20 AM41 °FPassing clouds.2 mph76%30.01 "HgN/A
11:20 PM
Fri, Apr 29
43 °FPassing clouds.2 mph66%30.01 "HgN/A
10:20 PM45 °FPassing clouds.3 mph61%30.04 "HgN/A
9:20 PM48 °FPartly sunny.2 mph54%30.01 "HgN/A
8:20 PM54 °FPartly sunny.2 mph41%30.01 "HgN/A
7:20 PM57 °FScattered clouds.7 mph33%30.01 "HgN/A
6:20 PM57 °FScattered clouds.6 mph36%30.01 "HgN/A
5:20 PM57 °FPassing clouds.7 mph36%30.01 "HgN/A
4:20 PM57 °FPassing clouds.7 mph36%30.01 "HgN/A
3:20 PM55 °FPassing clouds.6 mph36%30.04 "HgN/A
2:20 PM54 °FPassing clouds.7 mph44%30.04 "HgN/A
1:20 PM52 °FPassing clouds.2 mph44%30.04 "HgN/A
12:20 PM52 °FScattered clouds.3 mph44%30.07 "HgN/A
12:00 PM50 °FPassing clouds.2 mph43%30.07 "HgN/A
11:20 AM50 °FPassing clouds.2 mph62%30.07 "HgN/A
Weather by CustomWeather, © 2016

See weather overviewHow to use our weather pages